Home   Weather   Lublin   Past weeks

Flag for Poland Past Weather in Lublin, Poland — Yesterday and Last 2 Weeks

Now
64 °F

Passing clouds.


Feels Like: 64 °F
Forecast: 50 / 69 °F
Wind: 5 mph from Northwest

Location: Lublin Radawiec

Current Time: May 26, 2017 at 2:54:19 pm

Latest Report: May 26, 2017 at 2:00 pm


Visibility: 19 mi

Pressure: 30.02 "Hg

Humidity: 54%

Dew Point: 47 °F

Location of LublinLocation

Past Weather in Lublin — Graph

°F

Lublin Temperature Yesterday

Maximum temperature yesterday: 67 °F (at 6:00 pm)
Minimum temperature yesterday: 51 °F (at 1:00 am)
Average temperature yesterday: 58 °F

High & Low Weather Summary for the Past Weeks

 TemperatureHumidityPressure
High76 °F (May 20, 3:00 pm)99% (May 14, 4:00 am)30.40 "Hg (May 14, 4:00 am)
Low41 °F (May 12, 5:00 am)30% (May 20, 12:00 pm)29.77 "Hg (May 12, 11:00 am)
Average59 °F71%30.04 "Hg
* Reported May 11 1:00 pm — May 26 1:00 pm, Lublin. Weather by CustomWeather, © 2017

Note: Actual official high and low records may vary slightly from our data, if they occured in-between our weather recording intervals... More about our weather records

Advertising

Lublin Weather History for the Previous 24 Hours

Scroll right to see more
 ConditionsComfort  
Time TempWeatherWind HumidityBarometerVisibility
1:00 pm
Fri, May 26
64 °FScattered clouds.5 mph57%30.03 "Hg19 mi
12:00 pm62 °FPartly sunny.5 mph61%30.05 "Hg18 mi
11:00 am61 °FOvercast.6 mph66%30.05 "Hg16 mi
10:00 am61 °FPartly sunny.5 mph66%30.05 "Hg17 mi
9:00 am59 °FScattered clouds.6 mph72%30.05 "Hg14 mi
8:00 am56 °FScattered clouds.5 mph80%30.05 "Hg14 mi
7:00 am53 °FScattered clouds.5 mph89%30.05 "Hg7 mi
6:00 am50 °FPassing clouds.5 mph92%30.06 "Hg9 mi
5:00 am50 °FPassing clouds.3 mph93%30.06 "Hg9 mi
4:00 am50 °FPassing clouds.5 mph90%30.06 "Hg11 mi
3:00 am51 °FPassing clouds.3 mph88%30.06 "Hg12 mi
2:00 am51 °FPassing clouds.3 mph85%30.06 "Hg16 mi
1:00 am52 °FPassing clouds.3 mph83%30.06 "Hg19 mi
12:00 am54 °FClear.5 mph78%30.05 "Hg16 mi
11:00 pm
Thu, May 25
55 °FPassing clouds.5 mph73%30.04 "Hg25 mi
10:00 pm55 °FPassing clouds.3 mph71%30.04 "Hg31 mi
9:00 pm58 °FPassing clouds.3 mph65%30.03 "Hg31 mi
8:00 pm60 °FPassing clouds.3 mph58%30.01 "Hg31 mi
7:00 pm65 °FPassing clouds.3 mph47%30.00 "Hg25 mi
6:00 pm67 °FScattered clouds.2 mph46%30.00 "Hg22 mi
5:00 pm66 °FPartly sunny.2 mph46%30.00 "Hg25 mi
4:00 pm66 °FPartly sunny.3 mph48%30.00 "Hg25 mi
3:00 pm66 °FPartly sunny.6 mph54%30.00 "Hg19 mi
2:00 pm64 °FPartly sunny.1 mph71%30.01 "Hg16 mi
Weather by CustomWeather, © 2017

See weather overviewHow to use our weather pages